• Em Portugal
  • Lista de países
  • Para 7 dias
  • Temperatura da água
  • Mapas de satélite
  • Mapa do tempo
  • Widgets de tempo
  • user-avatar
    Iniciar Sessão

    Previsão horária em Cisow

    Hoje, 19 Julho, Quinta-feira

    Tempo Temperatura Precipitação Vento Pressão Humidade
    00:00 +16°C° 0 mm 2 m/s 725 mmHg 93%
    01:00 +16°C° 0 mm 3 m/s 725 mmHg 94%
    02:00 +16°C° 0 mm 3 m/s 725 mmHg 94%
    03:00 +16°C° 0 mm 3 m/s 725 mmHg 95%
    04:00 +14°C° 0 mm 3 m/s 725 mmHg 95%
    05:00 +15°C° 0 mm 4 m/s 725 mmHg 92%
    06:00 +17°C° 0 mm 4 m/s 725 mmHg 89%
    07:00 +17°C° 0 mm 5 m/s 725 mmHg 86%
    08:00 +19°C° 0,1 mm 5 m/s 726 mmHg 83%
    09:00 +19°C° 0,1 mm 5 m/s 726 mmHg 80%
    10:00 +20°C° 0,1 mm 6 m/s 726 mmHg 77%
    11:00 +20°C° 0,3 mm 6 m/s 726 mmHg 80%
    12:00 +19°C° 0,3 mm 6 m/s 726 mmHg 82%
    13:00 +19°C° 0,3 mm 6 m/s 726 mmHg 84%
    14:00 +19°C° 0,2 mm 5 m/s 726 mmHg 86%
    15:00 +17°C° 0,2 mm 5 m/s 726 mmHg 87%
    16:00 +17°C° 0,2 mm 5 m/s 725 mmHg 89%
    17:00 +18°C° 0,1 mm 4 m/s 725 mmHg 89%
    18:00 +18°C° 0,1 mm 4 m/s 725 mmHg 89%
    19:00 +18°C° 0,1 mm 3 m/s 725 mmHg 89%
    20:00 +17°C° 0 mm 3 m/s 726 mmHg 91%
    21:00 +17°C° 0 mm 3 m/s 726 mmHg 92%
    22:00 +16°C° 0 mm 3 m/s 726 mmHg 94%
    23:00 +16°C° 0 mm 3 m/s 726 mmHg 94%

    Amanhã, 20 Julho, Sexta-feira

    Tempo Temperatura Precipitação Vento Pressão Humidade
    00:00 +15°C° 0 mm 2 m/s 726 mmHg 95%
    01:00 +15°C° 0 mm 2 m/s 726 mmHg 95%
    02:00 +15°C° 0 mm 2 m/s 726 mmHg 95%
    03:00 +14°C° 0 mm 2 m/s 726 mmHg 94%
    04:00 +14°C° 0 mm 2 m/s 726 mmHg 94%
    05:00 +15°C° 0 mm 2 m/s 726 mmHg 89%
    06:00 +16°C° 0 mm 2 m/s 726 mmHg 83%
    07:00 +17°C° 0 mm 2 m/s 726 mmHg 78%
    08:00 +19°C° 0 mm 3 m/s 727 mmHg 69%
    09:00 +20°C° 0 mm 3 m/s 727 mmHg 61%
    10:00 +22°C° 0 mm 3 m/s 727 mmHg 52%
    11:00 +24°C° 0 mm 3 m/s 727 mmHg 49%
    12:00 +24°C° 0 mm 3 m/s 726 mmHg 46%
    13:00 +25°C° 0 mm 3 m/s 726 mmHg 43%
    14:00 +25°C° 0 mm 3 m/s 726 mmHg 43%
    15:00 +25°C° 0 mm 3 m/s 726 mmHg 43%
    16:00 +25°C° 0 mm 3 m/s 725 mmHg 43%
    17:00 +24°C° 0 mm 2 m/s 725 mmHg 49%
    18:00 +23°C° 0 mm 2 m/s 725 mmHg 55%
    19:00 +21°C° 0 mm 1 m/s 725 mmHg 62%
    20:00 +20°C° 0 mm 1 m/s 725 mmHg 64%
    21:00 +19°C° 0 mm 1 m/s 725 mmHg 66%
    22:00 +16°C° 0 mm 1 m/s 725 mmHg 68%
    23:00 +16°C° 0 mm 1 m/s 725 mmHg 69%

    Depois de amanhã, 21 Julho, Sábado

    Tempo Temperatura Precipitação Vento Pressão Humidade
    00:00 +15°C° 0 mm 1 m/s 725 mmHg 70%
    01:00 +15°C° 0 mm 1 m/s 724 mmHg 71%
    02:00 +15°C° 0 mm 1 m/s 724 mmHg 72%
    03:00 +14°C° 0 mm 1 m/s 724 mmHg 73%
    04:00 +14°C° 0 mm 1 m/s 724 mmHg 73%
    05:00 +16°C° 0 mm 1 m/s 724 mmHg 70%
    06:00 +19°C° 0 mm 1 m/s 724 mmHg 66%
    07:00 +20°C° 0 mm 1 m/s 724 mmHg 63%
    08:00 +22°C° 0 mm 1 m/s 724 mmHg 58%
    09:00 +23°C° 0 mm 1 m/s 725 mmHg 53%
    10:00 +25°C° 0 mm 1 m/s 725 mmHg 48%
    11:00 +25°C° 0 mm 1 m/s 724 mmHg 47%
    12:00 +26°C° 0 mm 1 m/s 724 mmHg 45%
    13:00 +26°C° 0 mm 1 m/s 724 mmHg 43%
    14:00 +26°C° 0 mm 1 m/s 724 mmHg 43%
    15:00 +27°C° 0 mm 1 m/s 724 mmHg 43%
    16:00 +27°C° 0 mm 1 m/s 723 mmHg 43%
    17:00 +25°C° 0 mm 1 m/s 723 mmHg 49%
    18:00 +24°C° 0 mm 1 m/s 723 mmHg 55%
    19:00 +23°C° 0 mm 1 m/s 723 mmHg 61%
    20:00 +21°C° 0 mm 1 m/s 723 mmHg 63%
    21:00 +20°C° 0 mm 1 m/s 723 mmHg 66%
    22:00 +19°C° 0 mm 1 m/s 723 mmHg 68%
    23:00 +19°C° 0 mm 1 m/s 723 mmHg 70%

    22 Julho, Domingo

    Tempo Temperatura Precipitação Vento Pressão Humidade
    00:00 +18°C° 0 mm 1 m/s 723 mmHg 72%
    01:00 +16°C° 0 mm 1 m/s 723 mmHg 74%
    02:00 +16°C° 0 mm 1 m/s 723 mmHg 75%
    03:00 +16°C° 0 mm 1 m/s 722 mmHg 77%
    04:00 +16°C° 0 mm 1 m/s 722 mmHg 78%
    05:00 +18°C° 0 mm 1 m/s 722 mmHg 75%
    06:00 +19°C° 0 mm 1 m/s 723 mmHg 71%
    07:00 +19°C° 0 mm 0 m/s 723 mmHg 68%
    08:00 +22°C° 0,2 mm 1 m/s 723 mmHg 66%
    09:00 +23°C° 0,2 mm 1 m/s 723 mmHg 63%
    10:00 +24°C° 0,2 mm 2 m/s 723 mmHg 60%
    11:00 +25°C° 0,4 mm 2 m/s 723 mmHg 58%
    12:00 +25°C° 0,4 mm 2 m/s 723 mmHg 56%
    13:00 +26°C° 0,4 mm 2 m/s 723 mmHg 54%
    14:00 +25°C° 0,4 mm 2 m/s 723 mmHg 55%
    15:00 +25°C° 0,4 mm 2 m/s 723 mmHg 57%
    16:00 +25°C° 0,4 mm 3 m/s 723 mmHg 58%
    17:00 +24°C° 0,2 mm 2 m/s 723 mmHg 62%
    18:00 +21°C° 0,2 mm 2 m/s 723 mmHg 67%
    19:00 +20°C° 0,2 mm 2 m/s 723 mmHg 72%
    20:00 +19°C° 0 mm 2 m/s 723 mmHg 73%
    21:00 +18°C° 0 mm 2 m/s 723 mmHg 75%
    22:00 +18°C° 0 mm 2 m/s 724 mmHg 77%
    23:00 +17°C° 0 mm 2 m/s 724 mmHg 78%

    23 Julho, Segunda-feira

    Tempo Temperatura Precipitação Vento Pressão Humidade
    00:00 +17°C° 0 mm 2 m/s 724 mmHg 80%
    01:00 +17°C° 0 mm 2 m/s 724 mmHg 82%
    02:00 +16°C° 0 mm 2 m/s 724 mmHg 83%
    03:00 +16°C° 0 mm 2 m/s 724 mmHg 84%
    04:00 +16°C° 0 mm 2 m/s 724 mmHg 85%
    05:00 +17°C° 0,1 mm 2 m/s 725 mmHg 83%
    06:00 +18°C° 0,1 mm 3 m/s 725 mmHg 81%
    07:00 +18°C° 0,1 mm 3 m/s 725 mmHg 80%
    08:00 +20°C° 0,6 mm 3 m/s 726 mmHg 76%
    09:00 +21°C° 0,6 mm 3 m/s 726 mmHg 72%
    10:00 +22°C° 0,6 mm 4 m/s 726 mmHg 68%
    11:00 +22°C° 0,7 mm 4 m/s 726 mmHg 66%
    12:00 +23°C° 0,7 mm 4 m/s 726 mmHg 64%
    13:00 +23°C° 0,7 mm 4 m/s 726 mmHg 63%
    14:00 +23°C° 0,3 mm 4 m/s 726 mmHg 61%
    15:00 +25°C° 0,3 mm 4 m/s 726 mmHg 60%
    16:00 +25°C° 0,3 mm 4 m/s 726 mmHg 58%
    17:00 +24°C° 0,1 mm 3 m/s 726 mmHg 62%
    18:00 +23°C° 0,1 mm 2 m/s 726 mmHg 67%
    19:00 +21°C° 0,1 mm 2 m/s 726 mmHg 71%
    20:00 +20°C° 0 mm 1 m/s 726 mmHg 73%
    21:00 +19°C° 0 mm 1 m/s 726 mmHg 76%
    22:00 +18°C° 0 mm 1 m/s 726 mmHg 79%
    23:00 +16°C° 0 mm 1 m/s 726 mmHg 81%

    24 Julho, Terça-feira

    Tempo Temperatura Precipitação Vento Pressão Humidade
    00:00 +16°C° 0 mm 1 m/s 726 mmHg 83%
    01:00 +15°C° 0 mm 1 m/s 726 mmHg 84%
    02:00 +15°C° 0 mm 1 m/s 726 mmHg 85%
    03:00 +14°C° 0 mm 1 m/s 726 mmHg 87%
    04:00 +14°C° 0 mm 1 m/s 726 mmHg 88%
    05:00 +16°C° 0 mm 1 m/s 727 mmHg 83%
    06:00 +18°C° 0 mm 1 m/s 727 mmHg 77%
    07:00 +18°C° 0 mm 0 m/s 727 mmHg 72%
    08:00 +21°C° 0 mm 1 m/s 727 mmHg 67%
    09:00 +23°C° 0 mm 1 m/s 727 mmHg 62%
    10:00 +24°C° 0 mm 2 m/s 727 mmHg 57%
    11:00 +25°C° 0 mm 2 m/s 727 mmHg 56%
    12:00 +25°C° 0 mm 2 m/s 727 mmHg 55%
    13:00 +26°C° 0 mm 2 m/s 727 mmHg 53%
    14:00 +26°C° 0 mm 2 m/s 727 mmHg 54%
    15:00 +26°C° 0 mm 2 m/s 727 mmHg 54%
    16:00 +26°C° 0 mm 2 m/s 726 mmHg 54%
    17:00 +25°C° 0 mm 2 m/s 726 mmHg 59%
    18:00 +24°C° 0 mm 2 m/s 726 mmHg 65%
    19:00 +23°C° 0 mm 1 m/s 726 mmHg 70%
    20:00 +22°C° 0 mm 1 m/s 727 mmHg 74%
    21:00 +20°C° 0 mm 1 m/s 727 mmHg 78%
    22:00 +19°C° 0 mm 1 m/s 727 mmHg 82%
    23:00 +19°C° 0 mm 1 m/s 727 mmHg 83%
    Mostrar mais